SCP
0 0 0 0 0 0 0 0 0 0 0 0 0 0 0 0 0 0 0 0 0 0 0 0 0 0 0 0 0 0 0 0
0 0 0 0 0 0 0 0 0 0 0 0 0 0 0 0 0 0 0 0 0 0 0 0 0 0 0 0 0 0 0 0
0 0 0 0 0 0 0 0 0 0 0 0 0 0 0 0 0 0 0 0 0 0 0 0 0 0 0 0 0 0 0 0
0 0 0 0 0 0 0 0 0 0 0 0 0 0 0 0 0 0 0 0 0 0 0 0 0 0 0 0 0 0 0 0
0 0 0 0 0 0 0 0 0 0 0 0 0 0 0 0 0 0 0 0 0 0 0 0 0 0 0 0 0 0 0 0
0 0 0 0 0 0 0 0 0 0 0 0 0 0 0 0 0 0 0 0 0 0 0 0 0 0 0 0 0 0 0 0
0 0 0 0 0 0 0 0 0 0 0 0 0 0 0 0 0 0 0 0 0 0 0 0 0 0 0 0 0 0 0 0
0 0 0 0 0 0 0 0 0 0 0 0 0 0 0 0 0 0 0 0 0 0 0 0 0 0 0 0 0 0 0 0
0 0 0 0 0 0 0 0 0 0 0 0 0 0 0 0 0 0 0 0 0 0 0 0 0 0 0 0 0 0 0 0
0 0 0 0 0 0 0 0 0 0 0 0 0 0 0 0 0 0 0 0 0 0 0 0 0 0 0 0 0 0 0 0
0 0 0 0 0 0 0 0 0 0 0 0 0 0 0 0 0 0 0 0 0 0 0 0 0 0 0 0 0 0 0 0
0 0 0 0 0 0 0 0 0 0 0 0 0 0 0 0 0 0 0 0 0 0 0 0 0 0 0 0 0 0 0 0
0 0 0 0 0 0 0 0 0 0 0 0 0 0 0 0 0 0 0 0 0 0 0 0 0 0 0 0 0 0 0 0
0 0 0 0 0 0 0 0 0 0 0 0 0 0 0 0 0 0 0 0 0 0 0 0 0 0 0 0 0 0 0 0
0 0 0 0 0 0 0 0 0 0 0 0 0 0 0 0 0 0 0 0 0 0 0 0 0 0 0 0 0 0 0 0
0 0 0 0 0 0 0 0 0 0 0 0 0 0 0 0 0 0 0 0 0 0 0 0 0 0 0 0 0 0 0 0
0 0 0 0 0 0 0 0 0 0 0 0 0 0 0 0 0 0 0 0 0 0 0 0 0 0 0 0 0 0 0 0
0 0 0 0 0 0 0 0 0 0 0 0 0 0 0 0 0 0 0 0 0 0 0 0 0 -0 0 0 0 0 0 0
0 0 0 0 0 0 0 0 0 0 0 0 0 0 0 0 0 0 0 0 0 0 0 0 -0 0 0 0 0 0 0 0
0 0 0 0 0 0 0 0 0 0 0 0 0 0 0 0 0 0 0 0 0 0 0 0 0 0 0 0 0 0 0 0
Wind_Speed_500mb
26 27 30 32 30 27 20 11 7 10 12 14 15 17 20 22 24 25 25 25 25 24 24 24 23 22 21 19 17 16 15 14
23 26 29 29 24 20 18 17 16 18 21 22 21 21 23 25 27 28 27 26 25 25 25 24 23 22 20 18 15 13 12 12
24 26 28 28 24 24 24 24 26 26 26 26 25 24 26 28 30 31 29 27 26 24 23 22 21 19 17 13 10 8 8 9
25 22 22 23 26 27 31 33 33 32 30 30 29 30 31 31 31 31 29 27 25 23 22 20 18 16 14 12 10 10 11 12
24 24 28 31 32 32 32 33 32 31 31 30 32 34 34 34 33 31 29 28 27 24 22 20 18 16 14 11 11 13 12 10
32 35 35 34 33 33 32 29 28 27 28 31 35 37 37 35 34 32 30 28 25 22 19 17 16 15 13 12 14 11 9 8
32 37 37 35 33 29 22 18 18 22 26 31 35 37 38 37 35 33 30 26 23 21 18 16 16 13 13 13 12 11 8 6
33 33 33 33 30 21 18 16 18 22 26 30 34 39 40 40 38 35 32 29 26 23 20 20 19 16 15 15 13 9 7 6
48 43 39 30 28 22 17 15 20 28 34 37 41 44 45 44 41 38 34 30 27 26 24 23 21 17 12 13 11 9 8 8
55 45 38 34 30 25 19 18 25 36 38 42 44 46 47 46 43 40 36 34 31 30 28 24 18 15 10 11 12 12 10 9
37 40 38 37 36 30 26 31 39 40 39 45 46 46 47 44 43 41 38 36 36 33 30 26 19 13 12 10 12 13 12 10
39 41 42 43 38 37 41 46 43 46 47 49 48 46 44 43 45 42 41 40 38 36 32 28 24 20 16 12 14 15 12 10
44 49 49 47 47 50 57 48 49 51 52 50 48 46 47 47 47 47 47 43 40 41 37 33 29 23 17 12 14 13 13 12
41 46 52 52 55 62 59 54 55 57 57 53 50 50 48 49 51 52 49 45 44 45 42 39 35 27 22 16 14 14 14 12
43 51 56 58 65 66 62 62 63 64 60 54 53 51 49 52 54 53 52 48 47 48 46 43 37 31 26 18 16 15 14 13
52 55 65 70 69 67 67 68 70 68 60 58 54 52 52 55 54 51 49 45 44 45 44 41 36 31 27 22 18 16 13 14
65 71 74 70 69 70 70 71 70 68 65 61 57 53 57 55 52 47 40 38 38 37 36 34 34 34 28 25 22 18 17 18
71 66 64 69 66 65 69 69 67 67 66 61 60 60 58 55 53 52 46 41 44 43 41 41 36 30 29 28 23 20 20 21
74 78 76 73 68 65 66 64 63 65 65 62 61 57 55 55 55 52 54 56 52 48 44 40 36 33 27 23 22 24 20 22
74 73 69 66 64 62 61 62 63 63 64 62 57 53 52 53 54 54 58 54 49 48 50 47 42 37 31 31 31 28 27 26
Wind_Direction_500mb
170 173 176 175 170 165 166 173 212 249 266 280 292 300 303 304 302 300 299 298 298 298 297 293 291 291 292 294 299 306 314 317
173 176 179 175 173 180 200 222 244 264 272 275 283 294 300 303 302 300 298 298 298 296 294 295 296 296 297 300 304 306 311 316
162 166 173 184 200 214 230 243 255 264 272 275 278 289 293 298 300 297 296 297 298 300 301 301 298 295 293 290 289 286 290 293
170 175 186 204 222 234 244 252 259 265 272 275 276 284 287 290 294 296 298 299 298 296 291 286 281 278 274 268 262 274 288 290
193 204 217 223 231 239 248 255 260 266 269 271 277 282 282 284 286 289 289 288 286 285 284 282 280 276 268 265 279 287 284 280
211 220 224 230 237 243 244 253 261 265 273 277 279 280 281 282 282 280 278 277 277 275 273 274 273 267 260 267 276 273 271 282
216 222 232 240 244 243 251 254 260 265 272 276 280 280 276 273 272 272 271 268 264 259 258 257 257 249 262 269 269 269 265 290
242 239 236 237 235 226 237 248 271 280 283 285 281 276 270 265 262 258 256 254 252 250 245 242 244 240 270 265 248 251 269 280
275 268 242 229 217 228 245 270 293 298 295 289 280 272 267 263 258 253 250 247 245 242 238 234 239 261 251 240 235 242 242 249
267 252 231 223 224 227 247 276 301 311 297 288 280 273 267 262 257 252 245 240 236 235 232 233 242 266 217 225 225 228 230 233
240 228 225 226 227 238 256 277 294 297 289 283 277 272 266 260 253 248 240 237 234 230 227 231 243 219 214 219 237 233 229 235
237 237 229 225 231 247 263 274 287 274 276 277 275 270 263 255 247 243 239 235 233 229 227 231 226 213 214 226 227 227 230 240
229 226 223 227 242 258 268 278 277 271 271 270 267 262 256 248 241 234 233 232 233 229 227 222 215 217 218 214 217 222 231 237
225 227 231 237 253 264 275 277 275 268 265 264 261 258 254 245 240 233 232 231 230 228 226 220 212 212 228 203 212 223 231 235
240 243 245 251 262 273 276 276 272 263 259 259 257 254 247 242 239 236 232 230 227 227 224 218 215 215 217 211 213 224 230 240
250 255 262 266 271 271 274 272 268 260 257 256 251 249 245 241 241 239 240 237 230 227 224 223 222 217 220 222 225 229 236 247
257 263 268 274 275 273 271 268 264 256 254 251 249 245 241 236 234 230 231 229 221 220 222 222 217 218 221 223 227 232 236 247
264 272 276 278 272 269 266 264 258 253 253 250 248 245 237 235 229 223 214 211 215 214 217 213 222 224 226 220 221 229 235 248
274 276 274 270 269 269 265 260 255 253 251 247 245 242 239 231 225 220 212 207 209 212 214 213 217 222 213 218 232 240 236 250
269 270 270 270 270 268 264 261 256 251 247 244 241 238 232 224 220 215 212 212 213 213 211 209 215 219 222 226 239 245 251 258
Wind_Speed_850mb
26 27 30 32 30 27 20 11 7 10 12 14 15 17 20 22 24 25 25 25 25 24 24 24 23 22 21 19 17 16 15 14
23 26 29 29 24 20 18 17 16 18 21 22 21 21 23 25 27 28 27 26 25 25 25 24 23 22 20 18 15 13 12 12
24 26 28 28 24 24 24 24 26 26 26 26 25 24 26 28 30 31 29 27 26 24 23 22 21 19 17 13 10 8 8 9
25 22 22 23 26 27 31 33 33 32 30 30 29 30 31 31 31 31 29 27 25 23 22 20 18 16 14 12 10 10 11 12
24 24 28 31 32 32 32 33 32 31 31 30 32 34 34 34 33 31 29 28 27 24 22 20 18 16 14 11 11 13 12 10
32 35 35 34 33 33 32 29 28 27 28 31 35 37 37 35 34 32 30 28 25 22 19 17 16 15 13 12 14 11 9 8
32 37 37 35 33 29 22 18 18 22 26 31 35 37 38 37 35 33 30 26 23 21 18 16 16 13 13 13 12 11 8 6
33 33 33 33 30 21 18 16 18 22 26 30 34 39 40 40 38 35 32 29 26 23 20 20 19 16 15 15 13 9 7 6
48 43 39 30 28 22 17 15 20 28 34 37 41 44 45 44 41 38 34 30 27 26 24 23 21 17 12 13 11 9 8 8
55 45 38 34 30 25 19 18 25 36 38 42 44 46 47 46 43 40 36 34 31 30 28 24 18 15 10 11 12 12 10 9
37 40 38 37 36 30 26 31 39 40 39 45 46 46 47 44 43 41 38 36 36 33 30 26 19 13 12 10 12 13 12 10
39 41 42 43 38 37 41 46 43 46 47 49 48 46 44 43 45 42 41 40 38 36 32 28 24 20 16 12 14 15 12 10
44 49 49 47 47 50 57 48 49 51 52 50 48 46 47 47 47 47 47 43 40 41 37 33 29 23 17 12 14 13 13 12
41 46 52 52 55 62 59 54 55 57 57 53 50 50 48 49 51 52 49 45 44 45 42 39 35 27 22 16 14 14 14 12
43 51 56 58 65 66 62 62 63 64 60 54 53 51 49 52 54 53 52 48 47 48 46 43 37 31 26 18 16 15 14 13
52 55 65 70 69 67 67 68 70 68 60 58 54 52 52 55 54 51 49 45 44 45 44 41 36 31 27 22 18 16 13 14
65 71 74 70 69 70 70 71 70 68 65 61 57 53 57 55 52 47 40 38 38 37 36 34 34 34 28 25 22 18 17 18
71 66 64 69 66 65 69 69 67 67 66 61 60 60 58 55 53 52 46 41 44 43 41 41 36 30 29 28 23 20 20 21
74 78 76 73 68 65 66 64 63 65 65 62 61 57 55 55 55 52 54 56 52 48 44 40 36 33 27 23 22 24 20 22
74 73 69 66 64 62 61 62 63 63 64 62 57 53 52 53 54 54 58 54 49 48 50 47 42 37 31 31 31 28 27 26
Wind_Direction_850mb
170 173 176 175 170 165 166 173 212 249 266 280 292 300 303 304 302 300 299 298 298 298 297 293 291 291 292 294 299 306 314 317
173 176 179 175 173 180 200 222 244 264 272 275 283 294 300 303 302 300 298 298 298 296 294 295 296 296 297 300 304 306 311 316
162 166 173 184 200 214 230 243 255 264 272 275 278 289 293 298 300 297 296 297 298 300 301 301 298 295 293 290 289 286 290 293
170 175 186 204 222 234 244 252 259 265 272 275 276 284 287 290 294 296 298 299 298 296 291 286 281 278 274 268 262 274 288 290
193 204 217 223 231 239 248 255 260 266 269 271 277 282 282 284 286 289 289 288 286 285 284 282 280 276 268 265 279 287 284 280
211 220 224 230 237 243 244 253 261 265 273 277 279 280 281 282 282 280 278 277 277 275 273 274 273 267 260 267 276 273 271 282
216 222 232 240 244 243 251 254 260 265 272 276 280 280 276 273 272 272 271 268 264 259 258 257 257 249 262 269 269 269 265 290
242 239 236 237 235 226 237 248 271 280 283 285 281 276 270 265 262 258 256 254 252 250 245 242 244 240 270 265 248 251 269 280
275 268 242 229 217 228 245 270 293 298 295 289 280 272 267 263 258 253 250 247 245 242 238 234 239 261 251 240 235 242 242 249
267 252 231 223 224 227 247 276 301 311 297 288 280 273 267 262 257 252 245 240 236 235 232 233 242 266 217 225 225 228 230 233
240 228 225 226 227 238 256 277 294 297 289 283 277 272 266 260 253 248 240 237 234 230 227 231 243 219 214 219 237 233 229 235
237 237 229 225 231 247 263 274 287 274 276 277 275 270 263 255 247 243 239 235 233 229 227 231 226 213 214 226 227 227 230 240
229 226 223 227 242 258 268 278 277 271 271 270 267 262 256 248 241 234 233 232 233 229 227 222 215 217 218 214 217 222 231 237
225 227 231 237 253 264 275 277 275 268 265 264 261 258 254 245 240 233 232 231 230 228 226 220 212 212 228 203 212 223 231 235
240 243 245 251 262 273 276 276 272 263 259 259 257 254 247 242 239 236 232 230 227 227 224 218 215 215 217 211 213 224 230 240
250 255 262 266 271 271 274 272 268 260 257 256 251 249 245 241 241 239 240 237 230 227 224 223 222 217 220 222 225 229 236 247
257 263 268 274 275 273 271 268 264 256 254 251 249 245 241 236 234 230 231 229 221 220 222 222 217 218 221 223 227 232 236 247
264 272 276 278 272 269 266 264 258 253 253 250 248 245 237 235 229 223 214 211 215 214 217 213 222 224 226 220 221 229 235 248
274 276 274 270 269 269 265 260 255 253 251 247 245 242 239 231 225 220 212 207 209 212 214 213 217 222 213 218 232 240 236 250
269 270 270 270 270 268 264 261 256 251 247 244 241 238 232 224 220 215 212 212 213 213 211 209 215 219 222 226 239 245 251 258